Regional Weather Roundup
Issued by NWS

Home | Current Version | Previous Version | Graphics & Text | Print | Product List | Glossary Off
Versions: 1 2 3 4 5 6 7 8 9 10 11 12 13 14 15 16 17 18 19 20 21 22 23 24 25 26 27 28 29 30 31 32 33 34 35 36 37 38 39 40 41 42 43 44 45 46 47 48 49 50

000
ASUS43 KMPX 292001
RWRMN
WEATHER ROUNDUP FOR MINNESOTA
NATIONAL WEATHER SERVICE TWIN CITIES/CHANHASSEN MN
300 PM CDT MON SEP 29 2014


NOTE: "FAIR" INDICATES FEW OR NO CLOUDS BELOW 12,000 FEET WITH NO
SIGNIFICANT WEATHER AND/OR OBSTRUCTIONS TO VISIBILITY. N/A MEANS
CURRENT SKY AND/OR WEATHER CONDITIONS ARE NOT AVAILABLE.

MNZ060>063-068>070-292100-
   Twin Cities Metro

CITY           SKY/WX    TMP DP  RH WIND       PRES   REMARKS
TWIN CITIES    CLOUDY    57  46  66 N13       30.12S
ST PAUL        PTSUNNY   58  47  66 N10       30.12F
CRYSTAL        CLOUDY    59  46  62 N13       30.12F
BLAINE         CLOUDY    57  46  67 N13       30.14S
LAKEVILLE      CLOUDY    57  48  72 NE8       30.11F
EDEN PRAIRIE   CLOUDY    56  48  74 N9        30.11F
SOUTH ST PAUL  CLOUDY    58  47  66 N8        30.12S
LAKE ELMO      CLOUDY    55  46  71 NE8       30.13S
$$
MNZ001>005-007-008-013>017-022>024-027-028-292100-
   Northwest Minnesota

CITY           SKY/WX    TMP DP  RH WIND       PRES   REMARKS
BEMIDJI        MOSUNNY   54  44  67 E6        30.18F
HALLOCK        CLOUDY    54  46  76 SE6       30.20F
ROSEAU         PTSUNNY   52  45  76 NE7       30.21F
WARROAD        CLOUDY    52  45  76 NE8       30.22F
THIEF RVR FALL MOSUNNY   55  46  71 E6        30.18F
CROOKSTON      MOSUNNY   57  46  67 E8        30.18F
FOSSTON        SUNNY     61  55  82 NE8       30.17F
DETROIT LAKES  SUNNY     59  46  63 SE10      30.15F
PARK RAPIDS    MOSUNNY   55  44  66 E9        30.16F
MAHNOMEN       FAIR      59  47  64 E3        30.16F
$$
MNZ006-009>011-018-025>026-292100-
   North Central Minnesota

CITY           SKY/WX    TMP DP  RH WIND       PRES   REMARKS
BAUDETTE       PTSUNNY   53  43  68 E5        30.21F
FLAG ISLAND    MOSUNNY   50  43  76 S9        30.21F
INTL FALLS     CLOUDY    46  40  79 NE7       30.23F
WASKISH        MOSUNNY   54  46  76 CALM      30.20F
BIG FORK       SUNNY     52  43  71 NE5       30.21F
LONGVILLE      CLOUDY    54  45  71 N6        30.19S
GRAND RAPIDS   CLOUDY    50  39  66 NE5       30.20F
CRANE LAKE     CLOUDY    45  39  81 NE5       30.26F
ORR            CLOUDY    48  39  71 CALM      30.20F
COOK           CLOUDY    48  41  76 E7        30.22F
WALKER         MOCLDY    53  44  73 E7        30.19F
$$
MNZ012-019>021-037-292100-
   Northeast Minnesota

CITY           SKY/WX    TMP DP  RH WIND       PRES   REMARKS
DULUTH         CLOUDY    45  40  82 E10       30.21S
ELY            CLOUDY    45  37  76 NE6       30.22F
HIBBING        CLOUDY    51  40  65 VRB6      30.21F
EVELETH        PTSUNNY   50  41  71 NE7       30.22S
DULUTH HARBOR  CLOUDY    48  43  81 MISG      30.24S
TWO HARBORS    CLOUDY    45  37  76 E9        30.21S
SILVER BAY     MOSUNNY   43  43 100 NE7       30.21S
GRAND MARAIS     N/A     49  40  71 SE5       30.23S
G MARAIS ARPRT CLOUDY    43  36  75 NW6       30.22R
$$
MNZ029>031-032-039>041-046>048-054>057-064-292100-
   West Central Minnesota

CITY           SKY/WX    TMP DP  RH WIND       PRES   REMARKS
FERGUS FALLS   SUNNY     61  45  55 SE9       30.13F
WHEATON        MOSUNNY   61  48  63 E9        30.13F
MORRIS         MOSUNNY   57  50  77 E13       30.12F
ALEXANDRIA     CLOUDY    53  47  79 NE12      30.16F
ELBOW LAKE     PTSUNNY   57  49  74 E7        30.13F
WADENA         MOSUNNY   52  45  76 E10       30.16S
GLENWOOD       PTSUNNY   54  48  82 E10       30.14F
APPLETON       CLOUDY    61  50  67 E8        30.11F
BENSON         CLOUDY    57  48  72 E9        30.13S
ORTONVILLE     CLOUDY    59  48  67 E8        30.11F
MADISON        PTSUNNY   63  54  72 E8        30.11S
WILLMAR        CLOUDY    59  48  67 E9        30.14F
$$
MNZ033>034-036-042>043-049>051-058-059-292100-
   Central Minnesota

CITY           SKY/WX    TMP DP  RH WIND       PRES   REMARKS
ST CLOUD       CLOUDY    57  46  66 NE7       30.15F
SAUK CENTRE    CLOUDY    54  47  78 NE13      30.15F
PAYNESVILLE    CLOUDY    53  46  77 NE9       30.14F
AITKIN         CLOUDY    55  46  71 N7        30.17F
PINE RIVER     PTSUNNY   54  45  71 NE7       30.21F
BRAINERD       CLOUDY    51  43  74 NE14      30.19S
STAPLES        CLOUDY    54  45  71 NE7       30.16F
LONG PRAIRIE   CLOUDY    52  45  76 N9        30.16S
LITTLE FALLS   CLOUDY    52  45  76 NE6       30.16S
LITCHFIELD     CLOUDY    55  50  82 NE8       30.14F
BUFFALO        CLOUDY    56  45  66 NE9       30.14F
MAPLE LAKE     CLOUDY    56  48  73 N8        30.15F
$$
MNZ037-044-045-052-053-292100-
   East Central Minnesota

CITY           SKY/WX    TMP DP  RH WIND       PRES   REMARKS
PRINCETON      CLOUDY    57  46  67 NE9       30.15F
MORA           PTSUNNY   54  43  66 NE9       30.18S
CAMBRIDGE      PTSUNNY   59  45  58 N8        30.13F
RUSH CITY      PTSUNNY   55  44  66 NE9       30.15F
MOOSE LAKE     CLOUDY    48  41  76 E7        30.19R
HINCKLEY       CLOUDY    52  45  76 NE12      30.17S
CLOQUET        CLOUDY    46  39  76 E9        30.21R
$$
MNZ071>073-080-081-089-090-097-098-292100-
   Southwest Minnesota

CITY           SKY/WX    TMP DP  RH WIND       PRES   REMARKS
MONTEVIDEO     CLOUDY    59  52  77 E10       30.12F
GRANITE FALLS  CLOUDY    59  50  72 NE9       30.13S
CANBY          CLOUDY    62  53  72 NE10      30.11F
MARSHALL       PTSUNNY   61  48  63 E10       30.09F
REDWOOD FALLS  PTSUNNY   63  50  62 NE8       30.10F
OLIVIA         CLOUDY    59  50  72 E7        30.11F
PIPESTONE      MOSUNNY   64  54  68 E9        30.06F
WINDOM         CLOUDY    63  54  72 NE7       30.08F
WORTHINGTON    CLOUDY    61  54  77 NE12      30.09F
JACKSON        CLOUDY    63  54  72 N6        30.09S
TRACY          MOSUNNY   63  54  72 NE6       30.10F
SLAYTON        CLOUDY    61  54  78 NE8       30.10F
$$
MNZ065>067-074>077-082>085-091>093-292100-
   South Central Minnesota

CITY           SKY/WX    TMP DP  RH WIND       PRES   REMARKS
MANKATO        MOSUNNY   61  48  63 NE10G17   30.09F
NEW ULM        MOSUNNY   63  52  67 NE10      30.09F
ST JAMES       CLOUDY    64  54  68 NE9       30.09F
FAIRMONT       CLOUDY    64  54  68 NE9       30.07F
GLENCOE        CLOUDY    57  47  68 NE7       30.12F
FARIBAULT      PTSUNNY   63  45  51 N10G16    30.11S
OWATONNA       MOSUNNY   59  50  72 NE13      30.09S
WASECA         MOSUNNY   61  46  59 N14G20    30.10F
ALBERT LEA     CLOUDY    66  54  63 N8        30.06F
$$
MNZ078>079-086>088-094>096-292100-
   Southeast Minnesota

CITY           SKY/WX    TMP DP  RH WIND       PRES   REMARKS
ROCHESTER      MOSUNNY   59  50  72 N13       30.08F
RED WING       CLOUDY    61  46  59 NE7       30.09F
STANTON        CLOUDY    60  48  66 N7        30.10S
DODGE CENTER   MOSUNNY   61  52  72 NE13      30.08S
WINONA         CLOUDY    55  50  82 NE7       30.08S
AUSTIN         CLOUDY    61  54  77 N7        30.07S
PRESTON        CLOUDY    60  52  76 N10       30.06S
$$
ABBREVIATIONS USED IN REMARKS
   TC - TEMPERATURES IN CELSIUS
  WCI - WIND CHILL INDEX
   HX - HEAT INDEX
  VSB - VISIBILITY
$$



USA.gov is the U.S. government's official web portal to all federal, state and local government web resources and services.